2021-015D (47702 NORAD) Tracking and Keplerian Element Data

This shows tracking and keplerian element data for the satellite.

Feedback or suggestion? Click here.




ElementValue
Catalog47702
Name2021-015D
Epoch Orbit447
Epoch Day88.70281156
Epoch Year2021
RAAN163.8235
Inclination97.4683
Eccentricity0.0012119
Argument of Perigee199.6712
Mean Anonmoly160.4173
Mean Motion15.21931241
Decay Rate-7.1E-07
L11 47702U 21015D 21088.70281156 -.00000071 00000-0 00000-0 0 9997
L22 47702 97.4683 163.8235 0012119 199.6712 160.4173 15.21931241 4472

Live tracking and technical data element details for 2021-015D (NORAD 47702). 2021-015D can be tracked NOW for your location showing map with azimuth and elevation plus other details from your city location.

Track the satellite on the map from your city or location and see movement details for azimuth, elevation, latitude, longitude, range, height, and movement on the map or in text.







IsCatalogInMostPopularTable: catalog: 47702, numindb: 8
Update: records affected: 1



GetName: 47702 2021-015D

Hit Count: updated at: Sat, 10 Apr 2021 18:24:29 GMT